Greybull, WY

2:02 AM MDT on June 29, 2017 (GMT -0600)
South Big Horn County

Weather History for KGEY - February, 2014

Change the Weather History Date:

Wednesday, February 26, 2014

  Actual Average Record
Temperature  
Mean Temperature 1 °F 29 °F  
Max Temperature 18 °F 42 °F 60 °F (2016)
Min Temperature -16 °F 16 °F -16 °F (2014)
Degree Days  
Heating Degree Days 64 36  
Month to date heating degree days 1308 1089  
Since 1 July heating degree days 5781 5903  
Cooling Degree Days 0 0  
Month to date cooling degree days 0 0  
Year to date cooling degree days 0 0  
Moisture  
Dew Point -8 °F    
Average Humidity 71    
Maximum Humidity 92    
Minimum Humidity 49    
Precipitation  
Precipitation 0.00 in 0.00 in 0.05 in (1960)
Month to date precipitation 0.22 0.16  
Year to date precipitation 0.26 0.39  
Sea Level Pressure  
Sea Level Pressure 30.36 in    
Wind  
Wind Speed 3 mph (SE)    
Max Wind Speed 9 mph    
Max Gust Speed 11 mph    
Visibility 9 miles    
Events      
T = Trace of Precipitation, MM = Missing Value Source: NWS Daily Summary

Daily Weather History Graph

Daily Weather History Graph

Search for Another Location

Airport or City:

Trip Planner

Search our weather history database for the weather conditions in past years. The results will help you decide how hot, cold, wet, or windy it might be!

Date:

Astronomy

Feb. 26, 2014 Rise Set
Actual Time 6:54 AM MST 5:56 PM MST
Civil Twilight 6:25 AM MST 6:25 PM MST
Nautical Twilight 5:51 AM MST 6:59 PM MST
Astronomical Twilight 5:18 AM MST 7:33 PM MST
Moon 4:48 AM MST (2/26) 3:10 PM MST (2/26)
Length of Visible Light 12h 00m
Length of Day
11h 01m
Waning Crescent, 9% of the Moon is Illuminated
Feb 26
Waning Crescent
Mar 1
New
Mar 8
First Quarter
Mar 16
Full
Mar 23
Last Quarter

Hourly Weather History & Observations

Time (MST) Temp. Windchill Dew Point Humidity Pressure Visibility Wind Dir Wind Speed Gust Speed Precip Events Conditions
12:53 AM -9.0 °F -18.2 °F -13.0 °F 83% 30.46 in 9.0 mi North 3.5 mph - N/A   Clear
1:53 AM -9.0 °F -20.4 °F -11.9 °F 87% 30.48 in 10.0 mi West 4.6 mph - N/A   Clear
2:53 AM -8.0 °F -21.0 °F -11.9 °F 83% 30.46 in 10.0 mi WSW 5.8 mph - N/A   Clear
3:53 AM -9.9 °F - -13.0 °F 86% 30.45 in 10.0 mi Calm Calm - N/A   Clear
4:53 AM -15.0 °F -25.0 °F -18.0 °F 86% 30.47 in 10.0 mi SE 3.5 mph - N/A   Clear
5:53 AM -16.1 °F -30.6 °F -18.9 °F 87% 30.49 in 10.0 mi SE 5.8 mph - N/A   Clear
6:53 AM -11.9 °F -25.7 °F -15.0 °F 86% 30.50 in 8.0 mi SE 5.8 mph - N/A   Clear
7:53 AM -11.0 °F - -14.1 °F 86% 30.52 in 10.0 mi Calm Calm - N/A   Clear
8:04 AM -11.0 °F - -14.1 °F 86% 30.21 in 4.0 mi Calm Calm - N/A   Scattered Clouds
8:07 AM -11.0 °F - -14.1 °F 86% 30.21 in 2.0 mi Calm Calm - N/A   Mostly Cloudy
8:14 AM -9.9 °F - -14.1 °F 82% 30.21 in 3.0 mi Calm Calm - N/A   Scattered Clouds
8:53 AM -8.0 °F - -11.0 °F 86% 30.52 in 10.0 mi Calm Calm - N/A   Clear
9:53 AM -2.9 °F - -8.0 °F 79% 30.49 in 10.0 mi Calm Calm - N/A   Clear
10:53 AM 1.0 °F - -4.0 °F 79% 30.47 in 10.0 mi Calm Calm - N/A   Clear
11:53 AM 3.9 °F -8.2 °F -4.0 °F 70% 30.44 in 10.0 mi East 6.9 mph - N/A   Clear
12:53 PM 9.0 °F -0.9 °F -0.0 °F 67% 30.41 in 10.0 mi ESE 5.8 mph - N/A   Clear
1:53 PM 10.9 °F - 1.0 °F 64% 30.37 in 10.0 mi Calm Calm - N/A   Clear
2:53 PM 16.0 °F - 1.0 °F 52% 30.32 in 10.0 mi Calm Calm - N/A   Clear
3:53 PM 17.1 °F - 1.9 °F 52% 30.30 in 10.0 mi Calm Calm - N/A   Clear
4:53 PM 15.1 °F 7.7 °F 3.0 °F 59% 30.30 in 10.0 mi North 4.6 mph - N/A   Clear
5:53 PM 10.0 °F 1.8 °F 1.0 °F 67% 30.30 in 10.0 mi NW 4.6 mph - N/A   Clear
6:53 PM 5.0 °F - -2.0 °F 73% 30.27 in 10.0 mi Calm Calm - N/A   Clear
7:53 PM -0.0 °F -7.9 °F -4.0 °F 83% 30.27 in 10.0 mi SSE 3.5 mph - N/A   Unknown
8:53 PM -2.9 °F -15.0 °F -7.1 °F 82% 30.26 in 10.0 mi SE 5.8 mph - N/A   Clear
9:53 PM -4.0 °F -16.3 °F -8.0 °F 83% 30.24 in 10.0 mi SE 5.8 mph - N/A   Clear
10:53 PM -4.0 °F -14.6 °F -7.1 °F 87% 30.20 in 10.0 mi ESE 4.6 mph - N/A   Clear
11:53 PM -6.0 °F - -9.9 °F 83% 30.18 in 10.0 mi Calm Calm - N/A   Clear